Location: Unspecified
(0.0000°N, 0.0000°E)
Time: 03:58:39
(UTC+00:00)

Hubble Space Telescope - Pass Details

Date: 29 May 2019
Orbit: 536 x 540 km, 28.5° (Epoch: 26 June)

Event Time Altitude Azimuth Distance (km) Brightness Sun altitude
Exits shadow 05:29:39 - 217° (SW) 2,288 3.5 -6.4°
Reaches altitude 10° 05:31:07 10° 208° (SSW) 1,783 3.0 -6.1°
Maximum altitude 05:34:36 26° 151° (SSE) 1,075 2.4 -5.3°
Drops below altitude 10° 05:38:05 10° 93° (E) 1,782 4.7 -4.5°
Sets 05:40:36 0° 80° (E) 2,672 6.5 -3.9°
